TimeCDT,TemperatureF,Dew PointF,Humidity,Sea Level PressureIn,VisibilityMPH,Wind Direction,Wind SpeedMPH,Gust SpeedMPH,PrecipitationIn,Events,Conditions,WindDirDegrees,DateUTC
12:55 AM,32.9,26.6,78,30.23,10.0,SSE,6.9,-,N/A,,Clear,160,2013-04-26 05:55:00
1:55 AM,31.8,27.1,83,30.22,10.0,SSE,3.5,-,N/A,,Clear,150,2013-04-26 06:55:00
2:55 AM,38.8,25.5,59,30.21,10.0,SSE,5.8,-,N/A,,Mostly Cloudy,150,2013-04-26 07:55:00
3:55 AM,42.1,24.4,50,30.20,10.0,SSE,8.1,-,N/A,,Overcast,150,2013-04-26 08:55:00
4:53 AM,42.8,24.8,49,30.19,10.0,South,5.8,-,N/A,Rain,Light Rain,170,2013-04-26 09:53:00
4:55 AM,43.3,25.3,49,30.20,10.0,South,4.6,-,0.00,Rain,Light Rain,170,2013-04-26 09:55:00
5:13 AM,42.8,26.6,53,30.19,10.0,SE,8.1,-,N/A,,Partly Cloudy,140,2013-04-26 10:13:00
5:55 AM,43.5,26.6,51,30.18,10.0,ESE,8.1,-,0.00,,Clear,120,2013-04-26 10:55:00
6:55 AM,44.6,28.4,53,30.16,10.0,SE,11.5,-,N/A,,Overcast,130,2013-04-26 11:55:00
7:55 AM,48.2,30.2,50,30.18,10.0,SSE,4.6,-,N/A,,Overcast,150,2013-04-26 12:55:00
8:55 AM,51.8,32.0,47,30.17,10.0,Variable,6.9,-,N/A,,Mostly Cloudy,0,2013-04-26 13:55:00
9:55 AM,55.4,33.8,44,30.15,10.0,South,16.1,21.9,N/A,,Mostly Cloudy,170,2013-04-26 14:55:00
10:55 AM,62.6,35.6,37,30.13,10.0,South,16.1,29.9,N/A,,Scattered Clouds,180,2013-04-26 15:55:00
11:55 AM,66.2,35.6,32,30.12,10.0,SSW,12.7,25.3,N/A,,Partly Cloudy,210,2013-04-26 16:55:00
12:55 PM,68.0,37.4,33,30.11,10.0,SW,13.8,20.7,N/A,,Mostly Cloudy,220,2013-04-26 17:55:00
1:55 PM,69.8,37.4,31,30.10,10.0,SW,15.0,25.3,N/A,,Scattered Clouds,220,2013-04-26 18:55:00
2:55 PM,71.6,39.4,31,30.07,10.0,SW,23.0,28.8,N/A,,Clear,230,2013-04-26 19:55:00
3:55 PM,69.8,40.6,35,30.07,10.0,SSW,11.5,18.4,N/A,,Scattered Clouds,200,2013-04-26 20:55:00
4:55 PM,70.3,42.1,36,30.07,10.0,SW,20.7,27.6,N/A,,Scattered Clouds,220,2013-04-26 21:55:00
5:55 PM,70.3,44.6,40,30.08,10.0,SSW,15.0,21.9,N/A,,Partly Cloudy,210,2013-04-26 22:55:00
6:55 PM,67.8,45.0,44,30.09,10.0,SW,11.5,19.6,N/A,,Clear,220,2013-04-26 23:55:00
7:55 PM,64.9,45.1,49,30.11,10.0,SW,12.7,-,N/A,,Clear,220,2013-04-27 00:55:00
8:55 PM,63.1,44.6,51,30.13,10.0,SSW,16.1,25.3,N/A,,Clear,200,2013-04-27 01:55:00
9:55 PM,61.2,44.4,54,30.14,10.0,South,9.2,-,N/A,,Clear,180,2013-04-27 02:55:00
10:55 PM,59.4,43.5,56,30.16,10.0,SSW,9.2,-,N/A,,Clear,200,2013-04-27 03:55:00
11:55 PM,58.5,44.4,60,30.16,10.0,SSW,15.0,23.0,N/A,,Partly Cloudy,200,2013-04-27 04:55:00